• En España
  • Lista de países
  • Para 7 días
  • Temperatura del agua
  • Mapa Satelital
  • El tiempo en el mapa
  • Informadores
  • user-avatar
    Iniciar sesión

    Tiempo cada hora Shali

    Hoy, 21 Agosto, Martes

    Tiempo Temperatura Precipitaciones Viento Presión Humedad
    00:00 +17°C° 0 mm 2 mps 751 mmHg 90%
    01:00 +17°C° 0 mm 2 mps 751 mmHg 91%
    02:00 +17°C° 0 mm 2 mps 751 mmHg 92%
    03:00 +17°C° 0 mm 2 mps 750 mmHg 93%
    04:00 +17°C° 0 mm 2 mps 750 mmHg 92%
    05:00 +18°C° 0 mm 2 mps 750 mmHg 91%
    06:00 +18°C° 0 mm 2 mps 750 mmHg 91%
    07:00 +19°C° 0 mm 2 mps 750 mmHg 85%
    08:00 +21°C° 0 mm 2 mps 750 mmHg 80%
    09:00 +22°C° 0 mm 3 mps 750 mmHg 74%
    10:00 +24°C° 0,3 mm 3 mps 750 mmHg 71%
    11:00 +25°C° 0,3 mm 3 mps 750 mmHg 67%
    12:00 +26°C° 0,3 mm 4 mps 750 mmHg 64%
    13:00 +26°C° 0,2 mm 4 mps 749 mmHg 62%
    14:00 +27°C° 0,2 mm 5 mps 749 mmHg 61%
    15:00 +27°C° 0,2 mm 5 mps 748 mmHg 59%
    16:00 +26°C° 0,1 mm 5 mps 748 mmHg 63%
    17:00 +25°C° 0,1 mm 4 mps 748 mmHg 67%
    18:00 +23°C° 0,1 mm 4 mps 747 mmHg 72%
    19:00 +22°C° 0 mm 4 mps 747 mmHg 73%
    20:00 +21°C° 0 mm 5 mps 747 mmHg 74%
    21:00 +20°C° 0 mm 5 mps 747 mmHg 75%
    22:00 +20°C° 0 mm 5 mps 746 mmHg 73%
    23:00 +19°C° 0 mm 5 mps 746 mmHg 72%

    Mañana, 22 Agosto, Miércoles

    Tiempo Temperatura Precipitaciones Viento Presión Humedad
    00:00 +19°C° 0 mm 6 mps 746 mmHg 70%
    01:00 +19°C° 0 mm 5 mps 745 mmHg 70%
    02:00 +17°C° 0 mm 5 mps 745 mmHg 69%
    03:00 +17°C° 0 mm 5 mps 745 mmHg 69%
    04:00 +17°C° 0,9 mm 5 mps 745 mmHg 74%
    05:00 +16°C° 0,9 mm 5 mps 745 mmHg 79%
    06:00 +16°C° 0,9 mm 5 mps 745 mmHg 84%
    07:00 +17°C° 0,9 mm 4 mps 745 mmHg 86%
    08:00 +17°C° 0,9 mm 4 mps 745 mmHg 89%
    09:00 +17°C° 0,9 mm 4 mps 745 mmHg 91%
    10:00 +17°C° 0,4 mm 4 mps 745 mmHg 88%
    11:00 +17°C° 0,4 mm 3 mps 746 mmHg 84%
    12:00 +18°C° 0,4 mm 3 mps 746 mmHg 81%
    13:00 +18°C° 0,2 mm 4 mps 746 mmHg 75%
    14:00 +19°C° 0,2 mm 4 mps 746 mmHg 68%
    15:00 +20°C° 0,2 mm 4 mps 747 mmHg 61%
    16:00 +19°C° 0,3 mm 4 mps 747 mmHg 66%
    17:00 +18°C° 0,3 mm 4 mps 747 mmHg 70%
    18:00 +17°C° 0,3 mm 3 mps 748 mmHg 75%
    19:00 +15°C° 0,1 mm 4 mps 748 mmHg 79%
    20:00 +13°C° 0,1 mm 4 mps 749 mmHg 83%
    21:00 +12°C° 0,1 mm 4 mps 749 mmHg 86%
    22:00 +12°C° 0 mm 4 mps 750 mmHg 88%
    23:00 +11°C° 0 mm 4 mps 750 mmHg 89%

    Pasado mañana, 23 Agosto, Jueves

    Tiempo Temperatura Precipitaciones Viento Presión Humedad
    00:00 +10°C° 0 mm 3 mps 750 mmHg 91%
    01:00 +10°C° 0 mm 3 mps 751 mmHg 92%
    02:00 +10°C° 0 mm 3 mps 751 mmHg 93%
    03:00 +9°C° 0 mm 3 mps 751 mmHg 93%
    04:00 +9°C° 0 mm 3 mps 752 mmHg 93%
    05:00 +8°C° 0 mm 4 mps 752 mmHg 92%
    06:00 +10°C° 0 mm 4 mps 753 mmHg 91%
    07:00 +11°C° 0 mm 4 mps 753 mmHg 84%
    08:00 +12°C° 0 mm 5 mps 753 mmHg 76%
    09:00 +13°C° 0 mm 6 mps 754 mmHg 69%
    10:00 +14°C° 0 mm 6 mps 754 mmHg 64%
    11:00 +15°C° 0 mm 6 mps 754 mmHg 59%
    12:00 +16°C° 0 mm 6 mps 754 mmHg 54%
    13:00 +16°C° 0 mm 6 mps 754 mmHg 53%
    14:00 +16°C° 0 mm 6 mps 754 mmHg 53%
    15:00 +17°C° 0 mm 6 mps 754 mmHg 52%
    16:00 +16°C° 0 mm 5 mps 754 mmHg 57%
    17:00 +15°C° 0 mm 4 mps 755 mmHg 61%
    18:00 +14°C° 0 mm 3 mps 755 mmHg 66%
    19:00 +13°C° 0 mm 3 mps 755 mmHg 67%
    20:00 +12°C° 0 mm 3 mps 755 mmHg 69%
    21:00 +11°C° 0 mm 3 mps 755 mmHg 70%
    22:00 +11°C° 0 mm 3 mps 755 mmHg 72%
    23:00 +11°C° 0 mm 3 mps 756 mmHg 73%

    24 Agosto, Viernes

    Tiempo Temperatura Precipitaciones Viento Presión Humedad
    00:00 +11°C° 0 mm 3 mps 756 mmHg 74%
    01:00 +11°C° 0 mm 3 mps 756 mmHg 75%
    02:00 +11°C° 0 mm 3 mps 756 mmHg 76%
    03:00 +11°C° 0 mm 3 mps 756 mmHg 76%
    04:00 +11°C° 0 mm 3 mps 756 mmHg 76%
    05:00 +11°C° 0 mm 4 mps 755 mmHg 75%
    06:00 +12°C° 0 mm 4 mps 755 mmHg 75%
    07:00 +13°C° 0 mm 5 mps 755 mmHg 72%
    08:00 +15°C° 0 mm 6 mps 755 mmHg 69%
    09:00 +16°C° 0 mm 6 mps 755 mmHg 67%
    10:00 +18°C° 0 mm 7 mps 755 mmHg 64%
    11:00 +20°C° 0 mm 7 mps 755 mmHg 61%
    12:00 +21°C° 0 mm 7 mps 754 mmHg 58%
    13:00 +21°C° 0 mm 6 mps 755 mmHg 59%
    14:00 +21°C° 0 mm 6 mps 755 mmHg 60%
    15:00 +22°C° 0 mm 5 mps 755 mmHg 61%
    16:00 +21°C° 0 mm 4 mps 755 mmHg 66%
    17:00 +20°C° 0 mm 3 mps 755 mmHg 70%
    18:00 +19°C° 0 mm 2 mps 755 mmHg 75%
    19:00 +18°C° 0 mm 2 mps 755 mmHg 78%
    20:00 +17°C° 0 mm 2 mps 755 mmHg 80%
    21:00 +16°C° 0 mm 2 mps 755 mmHg 83%
    22:00 +16°C° 0 mm 2 mps 755 mmHg 85%
    23:00 +15°C° 0 mm 2 mps 756 mmHg 87%

    25 Agosto, Sábado

    Tiempo Temperatura Precipitaciones Viento Presión Humedad
    00:00 +14°C° 0 mm 1 mps 756 mmHg 90%
    01:00 +14°C° 0 mm 1 mps 756 mmHg 91%
    02:00 +14°C° 0 mm 1 mps 756 mmHg 92%
    03:00 +14°C° 0 mm 1 mps 756 mmHg 93%
    04:00 +14°C° 0 mm 1 mps 756 mmHg 92%
    05:00 +14°C° 0 mm 1 mps 757 mmHg 92%
    06:00 +14°C° 0 mm 1 mps 757 mmHg 92%
    07:00 +16°C° 0 mm 1 mps 757 mmHg 86%
    08:00 +19°C° 0 mm 1 mps 757 mmHg 81%
    09:00 +19°C° 0 mm 2 mps 757 mmHg 76%
    10:00 +21°C° 0 mm 1 mps 758 mmHg 72%
    11:00 +22°C° 0 mm 1 mps 758 mmHg 68%
    12:00 +23°C° 0 mm 1 mps 758 mmHg 64%
    13:00 +23°C° 0 mm 1 mps 758 mmHg 64%
    14:00 +23°C° 0 mm 1 mps 758 mmHg 63%
    15:00 +23°C° 0 mm 1 mps 758 mmHg 62%
    16:00 +22°C° 0 mm 1 mps 758 mmHg 66%
    17:00 +21°C° 0 mm 1 mps 758 mmHg 70%
    18:00 +21°C° 0 mm 1 mps 758 mmHg 74%
    19:00 +19°C° 0 mm 1 mps 758 mmHg 78%
    20:00 +18°C° 0 mm 1 mps 758 mmHg 82%
    21:00 +16°C° 0 mm 1 mps 758 mmHg 86%
    22:00 +15°C° 0 mm 1 mps 758 mmHg 88%
    23:00 +15°C° 0 mm 1 mps 759 mmHg 89%

    26 Agosto, Domingo

    Tiempo Temperatura Precipitaciones Viento Presión Humedad
    00:00 +15°C° 0 mm 1 mps 759 mmHg 90%
    01:00 +14°C° 0 mm 1 mps 759 mmHg 90%
    02:00 +14°C° 0 mm 1 mps 759 mmHg 91%
    03:00 +14°C° 0 mm 1 mps 759 mmHg 91%
    04:00 +13°C° 0 mm 0 mps 760 mmHg 91%
    05:00 +14°C° 0 mm 0 mps 760 mmHg 90%
    06:00 +14°C° 0 mm 0 mps 760 mmHg 89%
    07:00 +18°C° 0 mm 1 mps 760 mmHg 84%
    08:00 +19°C° 0 mm 1 mps 760 mmHg 78%
    09:00 +21°C° 0 mm 1 mps 760 mmHg 72%
    10:00 +22°C° 0 mm 1 mps 760 mmHg 69%
    11:00 +23°C° 0 mm 1 mps 760 mmHg 66%
    12:00 +24°C° 0 mm 1 mps 760 mmHg 62%
    13:00 +24°C° 0 mm 1 mps 759 mmHg 61%
    14:00 +24°C° 0 mm 1 mps 759 mmHg 60%
    15:00 +24°C° 0 mm 1 mps 759 mmHg 59%
    16:00 +24°C° 0 mm 1 mps 759 mmHg 64%
    17:00 +23°C° 0 mm 1 mps 759 mmHg 68%
    18:00 +22°C° 0 mm 1 mps 759 mmHg 73%
    19:00 +20°C° 0 mm 1 mps 759 mmHg 76%
    20:00 +19°C° 0 mm 1 mps 759 mmHg 80%
    21:00 +18°C° 0 mm 1 mps 759 mmHg 84%
    22:00 +18°C° 0 mm 1 mps 759 mmHg 85%
    23:00 +16°C° 0 mm 1 mps 759 mmHg 85%
    Mostrar más